STARLINK-36487, 67416

Orbit data source: Space-Track

STARLINK-36487, 67416 is a payload satellite owned by SpaceX/Seattle (US) in LEO that was launched on Mon, 12 Jan 2026 UTC via an FALCON 9 launch vehicle from the Air Force Eastern Test Range (AFETR). Payload-class satellites include a variety of spacecraft equipped with specific instruments for various scientific and technological missions. These include communications satellites like Starlink; space stations such as the ISS; scientific satellites like the Hubble; Earth observation satellites from companies like Planet Labs, Umbra, and HawkEye 360; GPS; miniature CubeSats for education and research; and military/defense satellites.

Loading next visibility...
Identifier
67416, 2026-005N
Orbit
LEO
Country
Flag of USUS
Related business
Manufacturer
SpaceX/Seattle
Mission
Operational Commercial Communications
Bus & Motor
STARLINK V2MO, Unknown motor
Mass
575 kg wet, ~530 kg dry
Launch date (UTC)
2026-01-12 (5 months ago)
Launch vehicle
FALCON 9
Launch site
Air Force Eastern Test Range (AFETR)
Object type
Payload
Rocket body
Debris
Shape & HBR
Box + 2 Pan, 17.7 m
Radar Cross Section
36.964 m², Large (>1 m²)

Expand to show TLE details & history
Last TLE update: 2 days ago

TLE from 2 days ago
0 STARLINK-36487
1 67416U 26005N   26170.30204259  .00013597  00000-0  50255-3 0  9993
2 67416  43.0030  24.4046 0001522 266.2684  93.7993 15.27590643 24233
Epoch: 2026-06-19T07:14Z
TLE epoch observation values (Epoch: 2026-06-19T07:14:56.479Z)
Latitude
-0.00008°
Longitude
8.13622°
Altitude
482.862 km
Speed
7.626 km/s
True Right ascension
01h 37m 37s
True Declination
0° 00' 00"
Sunlit
Object was in daylight at epoch
Visualization orbit readout
Latitude
Unknown
Longitude
Unknown
Altitude
Unknown
Speed
Unknown
Apparent Right ascension
Unknown
Apparent Declination
Unknown
Sunlit
N/A
Visualization observer readout
Local Sidereal Time
07:16:06
Azimuth
Unknown
Elevation
Unknown
Doppler factor
Unknown
Orbital elements
Apogee altitude
486.006 km
Perigee altitude
483.917 km
Semi-major axis
6,863.099 km
Eccentricity
0.00015
Inclination
43.003°
RAAN
24.4046°
Arg. of periapsis
266.2684°
True anomaly
93.8167°
Mean anomaly
93.7993°
Eccentric anomaly
93.808°
Mean motion
3.81736 °/min
Orbital period
94.31 mins
BSTAR
0.00050255
Loading maneuver chart data...
Computing Atmospheric mass density...
Loading historical data...
Loading historical data...
Loading historical data...
Loading historical data...
Loading historical data...
Loading historical data...
Loading historical data...

Documentation

Showing up to 5 results
|